Time,TemperatureF,DewpointF,PressureIn,WindDirection,WindDirectionDegrees,WindSpeedMPH,WindSpeedGustMPH,Humidity,HourlyPrecipIn,Conditions,Clouds,dailyrainin,SolarRadiationWatts/m^2,SoftwareType,DateUTC
2013-08-09 00:01:00,60.0,44.0,-100.00,SSW,202,3.0,14.0,55,0.00,,,0.00,0.000000,,2013-08-09 06:01:00,
2013-08-09 00:11:00,60.0,44.0,-100.00,SSW,202,3.0,14.0,55,0.00,,,0.00,0.000000,,2013-08-09 06:11:00,
2013-08-09 00:21:00,60.0,44.0,-100.00,SSW,202,3.0,14.0,55,0.00,,,0.00,0.000000,,2013-08-09 06:21:00,
2013-08-09 00:32:00,60.0,44.0,-100.00,SSW,202,3.0,14.0,55,0.00,,,0.00,0.000000,,2013-08-09 06:32:00,
2013-08-09 00:52:00,61.0,45.0,-100.00,West,271,1.0,6.0,56,0.00,,,0.00,0.000000,,2013-08-09 06:52:00,
2013-08-09 01:01:00,61.0,45.0,-100.00,West,271,1.0,6.0,56,0.00,,,0.00,0.000000,,2013-08-09 07:01:00,
2013-08-09 01:12:00,61.0,45.0,-100.00,West,271,1.0,6.0,56,0.00,,,0.00,0.000000,,2013-08-09 07:12:00,
2013-08-09 01:22:00,61.0,45.0,-100.00,West,271,1.0,6.0,56,0.00,,,0.00,0.000000,,2013-08-09 07:22:00,
2013-08-09 01:33:00,61.0,45.0,-100.00,West,271,1.0,6.0,56,0.00,,,0.00,0.000000,,2013-08-09 07:33:00,
2013-08-09 02:02:00,59.0,45.0,-100.00,East,90,4.0,6.0,60,0.00,,,0.00,0.000000,,2013-08-09 08:02:00,
2013-08-09 02:12:00,59.0,45.0,-100.00,East,90,4.0,6.0,60,0.00,,,0.00,0.000000,,2013-08-09 08:12:00,
2013-08-09 02:22:00,59.0,45.0,-100.00,East,90,4.0,6.0,60,0.00,,,0.00,0.000000,,2013-08-09 08:22:00,
2013-08-09 02:32:00,59.0,45.0,-100.00,East,90,4.0,6.0,60,0.00,,,0.00,0.000000,,2013-08-09 08:32:00,
2013-08-09 02:53:00,57.0,45.0,-100.00,NE,55,5.0,8.0,63,0.00,,,0.00,0.000000,,2013-08-09 08:53:00,
2013-08-09 03:02:00,57.0,45.0,-100.00,NE,55,5.0,8.0,63,0.00,,,0.00,0.000000,,2013-08-09 09:02:00,
2013-08-09 03:12:00,57.0,45.0,-100.00,NE,55,5.0,8.0,63,0.00,,,0.00,0.000000,,2013-08-09 09:12:00,
2013-08-09 03:22:00,57.0,45.0,-100.00,NE,55,5.0,8.0,63,0.00,,,0.00,0.000000,,2013-08-09 09:22:00,
2013-08-09 03:32:00,57.0,45.0,-100.00,NE,55,5.0,8.0,63,0.00,,,0.00,0.000000,,2013-08-09 09:32:00,
2013-08-09 03:52:00,55.0,44.0,-100.00,ENE,70,6.0,9.0,67,0.00,,,0.00,0.000000,,2013-08-09 09:52:00,
2013-08-09 04:01:00,55.0,44.0,-100.00,ENE,70,6.0,9.0,67,0.00,,,0.00,0.000000,,2013-08-09 10:01:00,
2013-08-09 04:12:00,55.0,44.0,-100.00,ENE,70,6.0,9.0,67,0.00,,,0.00,0.000000,,2013-08-09 10:12:00,
2013-08-09 04:22:00,55.0,44.0,-100.00,ENE,70,6.0,9.0,67,0.00,,,0.00,0.000000,,2013-08-09 10:22:00,
2013-08-09 04:32:00,55.0,44.0,-100.00,ENE,70,6.0,9.0,67,0.00,,,0.00,0.000000,,2013-08-09 10:32:00,
2013-08-09 04:53:00,56.0,44.0,-100.00,ENE,72,8.0,11.0,64,0.00,,,0.00,0.000000,,2013-08-09 10:53:00,
2013-08-09 05:02:00,56.0,44.0,-100.00,ENE,72,8.0,11.0,64,0.00,,,0.00,0.000000,,2013-08-09 11:02:00,
2013-08-09 05:11:00,56.0,44.0,-100.00,ENE,72,8.0,11.0,64,0.00,,,0.00,0.000000,,2013-08-09 11:11:00,
2013-08-09 05:22:00,56.0,44.0,-100.00,ENE,72,8.0,11.0,64,0.00,,,0.00,0.000000,,2013-08-09 11:22:00,
2013-08-09 05:33:00,56.0,44.0,-100.00,ENE,72,8.0,11.0,64,0.00,,,0.00,0.000000,,2013-08-09 11:33:00,
2013-08-09 05:53:00,56.0,44.0,-100.00,ENE,66,6.0,11.0,63,0.00,,,0.00,0.000000,,2013-08-09 11:53:00,
2013-08-09 06:02:00,56.0,44.0,-100.00,ENE,66,6.0,11.0,63,0.00,,,0.00,0.000000,,2013-08-09 12:02:00,
2013-08-09 06:12:00,56.0,44.0,-100.00,ENE,66,6.0,11.0,63,0.00,,,0.00,0.000000,,2013-08-09 12:12:00,
2013-08-09 06:22:00,56.0,44.0,-100.00,ENE,66,6.0,11.0,63,0.00,,,0.00,0.000000,,2013-08-09 12:22:00,
2013-08-09 06:32:00,56.0,44.0,-100.00,ENE,66,6.0,11.0,63,0.00,,,0.00,0.000000,,2013-08-09 12:32:00,
2013-08-09 06:52:00,55.0,44.0,-100.00,East,79,8.0,10.0,67,0.00,,,0.00,1.000000,,2013-08-09 12:52:00,
2013-08-09 07:01:00,55.0,44.0,-100.00,East,79,8.0,10.0,67,0.00,,,0.00,1.000000,,2013-08-09 13:01:00,
2013-08-09 07:12:00,55.0,44.0,-100.00,East,79,8.0,10.0,67,0.00,,,0.00,1.000000,,2013-08-09 13:12:00,
2013-08-09 07:23:00,55.0,44.0,-100.00,East,79,8.0,10.0,67,0.00,,,0.00,1.000000,,2013-08-09 13:23:00,
2013-08-09 07:32:00,55.0,44.0,-100.00,East,79,8.0,10.0,67,0.00,,,0.00,1.000000,,2013-08-09 13:32:00,
2013-08-09 07:52:00,58.0,44.0,-100.00,ENE,70,8.0,10.0,60,0.00,,,0.00,74.000000,,2013-08-09 13:52:00,
2013-08-09 08:02:00,58.0,44.0,-100.00,ENE,70,8.0,10.0,60,0.00,,,0.00,74.000000,,2013-08-09 14:02:00,
2013-08-09 08:11:00,58.0,44.0,-100.00,ENE,70,8.0,10.0,60,0.00,,,0.00,74.000000,,2013-08-09 14:11:00,
2013-08-09 08:22:00,58.0,44.0,-100.00,ENE,70,8.0,10.0,60,0.00,,,0.00,74.000000,,2013-08-09 14:22:00,
2013-08-09 08:33:00,58.0,44.0,-100.00,ENE,70,8.0,10.0,60,0.00,,,0.00,74.000000,,2013-08-09 14:33:00,
2013-08-09 08:53:00,61.0,45.0,-100.00,East,80,7.0,10.0,55,0.00,,,0.00,301.000000,,2013-08-09 14:53:00,
2013-08-09 09:02:00,61.0,45.0,-100.00,East,80,7.0,10.0,55,0.00,,,0.00,301.000000,,2013-08-09 15:02:00,
2013-08-09 09:11:00,61.0,45.0,-100.00,East,80,7.0,10.0,55,0.00,,,0.00,301.000000,,2013-08-09 15:11:00,
2013-08-09 09:22:00,61.0,45.0,-100.00,East,80,7.0,10.0,55,0.00,,,0.00,301.000000,,2013-08-09 15:22:00,
2013-08-09 09:33:00,61.0,45.0,-100.00,East,80,7.0,10.0,55,0.00,,,0.00,301.000000,,2013-08-09 15:33:00,
2013-08-09 09:53:00,63.0,44.0,-100.00,ENE,59,11.0,16.0,50,0.00,,,0.00,520.000000,,2013-08-09 15:53:00,
2013-08-09 10:01:00,63.0,44.0,-100.00,ENE,59,11.0,16.0,50,0.00,,,0.00,520.000000,,2013-08-09 16:01:00,
2013-08-09 10:11:00,63.0,44.0,-100.00,ENE,59,11.0,16.0,50,0.00,,,0.00,520.000000,,2013-08-09 16:11:00,
2013-08-09 10:22:00,63.0,44.0,-100.00,ENE,59,11.0,16.0,50,0.00,,,0.00,520.000000,,2013-08-09 16:22:00,
2013-08-09 10:32:00,63.0,44.0,-100.00,ENE,59,11.0,16.0,50,0.00,,,0.00,520.000000,,2013-08-09 16:32:00,
2013-08-09 10:53:00,68.0,43.0,-100.00,ENE,74,6.0,14.0,41,0.00,,,0.00,722.000000,,2013-08-09 16:53:00,
2013-08-09 11:02:00,68.0,43.0,-100.00,ENE,74,6.0,14.0,41,0.00,,,0.00,722.000000,,2013-08-09 17:02:00,
2013-08-09 11:11:00,68.0,43.0,-100.00,ENE,74,6.0,14.0,41,0.00,,,0.00,722.000000,,2013-08-09 17:11:00,
2013-08-09 11:22:00,68.0,43.0,-100.00,ENE,74,6.0,14.0,41,0.00,,,0.00,722.000000,,2013-08-09 17:22:00,
2013-08-09 11:33:00,68.0,43.0,-100.00,ENE,74,6.0,14.0,41,0.00,,,0.00,722.000000,,2013-08-09 17:33:00,
2013-08-09 11:52:00,74.0,42.0,-100.00,SW,217,3.0,8.0,32,0.00,,,0.00,887.000000,,2013-08-09 17:52:00,
2013-08-09 12:01:00,74.0,42.0,-100.00,SW,217,3.0,8.0,32,0.00,,,0.00,887.000000,,2013-08-09 18:01:00,
2013-08-09 12:11:00,74.0,42.0,-100.00,SW,217,3.0,8.0,32,0.00,,,0.00,887.000000,,2013-08-09 18:11:00,
2013-08-09 12:22:00,74.0,42.0,-100.00,SW,217,3.0,8.0,32,0.00,,,0.00,887.000000,,2013-08-09 18:22:00,
2013-08-09 12:32:00,74.0,42.0,-100.00,SW,217,3.0,8.0,32,0.00,,,0.00,887.000000,,2013-08-09 18:32:00,
2013-08-09 12:53:00,77.0,41.0,-100.00,SSE,153,5.0,13.0,28,0.00,,,0.00,999.000000,,2013-08-09 18:53:00,
2013-08-09 13:02:00,77.0,41.0,-100.00,SSE,153,5.0,13.0,28,0.00,,,0.00,999.000000,,2013-08-09 19:02:00,
2013-08-09 13:11:00,77.0,41.0,-100.00,SSE,153,5.0,13.0,28,0.00,,,0.00,999.000000,,2013-08-09 19:11:00,
2013-08-09 13:22:00,77.0,41.0,-100.00,SSE,153,5.0,13.0,28,0.00,,,0.00,999.000000,,2013-08-09 19:22:00,
2013-08-09 13:32:00,77.0,41.0,-100.00,SSE,153,5.0,13.0,28,0.00,,,0.00,999.000000,,2013-08-09 19:32:00,
2013-08-09 13:52:00,78.0,36.0,-100.00,WSW,247,7.0,18.0,22,0.00,,,0.00,918.000000,,2013-08-09 19:52:00,
2013-08-09 14:02:00,78.0,36.0,-100.00,WSW,247,7.0,18.0,22,0.00,,,0.00,918.000000,,2013-08-09 20:02:00,
2013-08-09 14:11:00,78.0,36.0,-100.00,WSW,247,7.0,18.0,22,0.00,,,0.00,918.000000,,2013-08-09 20:11:00,
2013-08-09 14:22:00,78.0,36.0,-100.00,WSW,247,7.0,18.0,22,0.00,,,0.00,918.000000,,2013-08-09 20:22:00,
2013-08-09 14:52:00,74.0,41.0,-100.00,WSW,248,9.0,15.0,30,0.00,,,0.00,383.000000,,2013-08-09 20:52:00,
2013-08-09 15:01:00,74.0,41.0,-100.00,WSW,248,9.0,15.0,30,0.00,,,0.00,383.000000,,2013-08-09 21:01:00,
2013-08-09 15:12:00,74.0,41.0,-100.00,WSW,248,9.0,15.0,30,0.00,,,0.00,383.000000,,2013-08-09 21:12:00,
2013-08-09 15:22:00,74.0,41.0,-100.00,WSW,248,9.0,15.0,30,0.00,,,0.00,383.000000,,2013-08-09 21:22:00,
2013-08-09 15:33:00,74.0,41.0,-100.00,WSW,248,9.0,15.0,30,0.00,,,0.00,383.000000,,2013-08-09 21:33:00,
2013-08-09 15:52:00,81.0,36.0,-100.00,WSW,258,8.0,14.0,20,0.00,,,0.00,692.000000,,2013-08-09 21:52:00,
2013-08-09 16:01:00,81.0,36.0,-100.00,WSW,258,8.0,14.0,20,0.00,,,0.00,692.000000,,2013-08-09 22:01:00,
2013-08-09 16:11:00,81.0,36.0,-100.00,WSW,258,8.0,14.0,20,0.00,,,0.00,692.000000,,2013-08-09 22:11:00,
2013-08-09 16:22:00,81.0,36.0,-100.00,WSW,258,8.0,14.0,20,0.00,,,0.00,692.000000,,2013-08-09 22:22:00,
2013-08-09 16:32:00,81.0,36.0,-100.00,WSW,258,8.0,14.0,20,0.00,,,0.00,692.000000,,2013-08-09 22:32:00,
2013-08-09 16:52:00,78.0,32.0,-100.00,West,275,3.0,14.0,19,0.00,,,0.00,526.000000,,2013-08-09 22:52:00,
2013-08-09 17:01:00,78.0,32.0,-100.00,West,275,3.0,14.0,19,0.00,,,0.00,526.000000,,2013-08-09 23:01:00,
2013-08-09 17:11:00,78.0,32.0,-100.00,West,275,3.0,14.0,19,0.00,,,0.00,526.000000,,2013-08-09 23:11:00,
2013-08-09 17:21:00,78.0,32.0,-100.00,West,275,3.0,14.0,19,0.00,,,0.00,526.000000,,2013-08-09 23:21:00,
2013-08-09 17:32:00,78.0,32.0,-100.00,West,275,3.0,14.0,19,0.00,,,0.00,526.000000,,2013-08-09 23:32:00,
2013-08-09 17:52:00,76.0,37.0,-100.00,NNE,33,12.0,18.0,24,0.00,,,0.00,376.000000,,2013-08-09 23:52:00,
2013-08-09 18:01:00,76.0,37.0,-100.00,NNE,33,12.0,18.0,24,0.00,,,0.00,376.000000,,2013-08-10 00:01:00,
2013-08-09 18:11:00,76.0,37.0,-100.00,NNE,33,12.0,18.0,24,0.00,,,0.00,376.000000,,2013-08-10 00:11:00,
2013-08-09 18:22:00,76.0,37.0,-100.00,NNE,33,12.0,18.0,24,0.00,,,0.00,376.000000,,2013-08-10 00:22:00,
2013-08-09 18:33:00,76.0,37.0,-100.00,NNE,33,12.0,18.0,24,0.00,,,0.00,376.000000,,2013-08-10 00:33:00,
2013-08-09 18:53:00,72.0,39.0,-100.00,South,169,8.0,20.0,30,0.00,,,0.00,119.000000,,2013-08-10 00:53:00,
2013-08-09 19:01:00,72.0,39.0,-100.00,South,169,8.0,20.0,30,0.00,,,0.00,119.000000,,2013-08-10 01:01:00,
2013-08-09 19:11:00,72.0,39.0,-100.00,South,169,8.0,20.0,30,0.00,,,0.00,119.000000,,2013-08-10 01:11:00,
2013-08-09 19:22:00,72.0,39.0,-100.00,South,169,8.0,20.0,30,0.00,,,0.00,119.000000,,2013-08-10 01:22:00,
2013-08-09 19:32:00,72.0,39.0,-100.00,South,169,8.0,20.0,30,0.00,,,0.00,119.000000,,2013-08-10 01:32:00,
2013-08-09 19:52:00,66.0,43.0,-100.00,SE,125,8.0,21.0,44,0.00,,,0.00,39.000000,,2013-08-10 01:52:00,
2013-08-09 20:03:00,66.0,43.0,-100.00,SE,125,8.0,21.0,44,0.00,,,0.00,39.000000,,2013-08-10 02:03:00,
2013-08-09 20:11:00,66.0,43.0,-100.00,SE,125,8.0,21.0,44,0.00,,,0.00,39.000000,,2013-08-10 02:11:00,
2013-08-09 20:21:00,66.0,43.0,-100.00,SE,125,8.0,21.0,44,0.00,,,0.00,39.000000,,2013-08-10 02:21:00,
2013-08-09 20:32:00,66.0,43.0,-100.00,SE,125,8.0,21.0,44,0.00,,,0.00,39.000000,,2013-08-10 02:32:00,
2013-08-09 20:52:00,63.0,46.0,-100.00,North,351,5.0,24.0,53,0.00,,,0.00,1.000000,,2013-08-10 02:52:00,
2013-08-09 21:01:00,63.0,46.0,-100.00,North,351,5.0,24.0,53,0.00,,,0.00,1.000000,,2013-08-10 03:01:00,
2013-08-09 21:11:00,63.0,46.0,-100.00,North,351,5.0,24.0,53,0.00,,,0.00,1.000000,,2013-08-10 03:11:00,
2013-08-09 21:21:00,63.0,46.0,-100.00,North,351,5.0,24.0,53,0.00,,,0.00,1.000000,,2013-08-10 03:21:00,
2013-08-09 21:32:00,63.0,46.0,-100.00,North,351,5.0,24.0,53,0.00,,,0.00,1.000000,,2013-08-10 03:32:00,
2013-08-09 21:52:00,61.0,47.0,-100.00,ENE,64,9.0,13.0,61,0.00,,,0.00,0.000000,,2013-08-10 03:52:00,
2013-08-09 22:01:00,61.0,47.0,-100.00,ENE,64,9.0,13.0,61,0.00,,,0.00,0.000000,,2013-08-10 04:01:00,
2013-08-09 22:12:00,61.0,47.0,-100.00,ENE,64,9.0,13.0,61,0.00,,,0.00,0.000000,,2013-08-10 04:12:00,
2013-08-09 22:22:00,61.0,47.0,-100.00,ENE,64,9.0,13.0,61,0.00,,,0.00,0.000000,,2013-08-10 04:22:00,
2013-08-09 22:32:00,61.0,47.0,-100.00,ENE,64,9.0,13.0,61,0.00,,,0.00,0.000000,,2013-08-10 04:32:00,
2013-08-09 22:53:00,60.0,46.0,-100.00,ENE,62,8.0,15.0,60,0.00,,,0.00,0.000000,,2013-08-10 04:53:00,
2013-08-09 23:02:00,60.0,46.0,-100.00,ENE,62,8.0,15.0,60,0.00,,,0.00,0.000000,,2013-08-10 05:02:00,
2013-08-09 23:11:00,60.0,46.0,-100.00,ENE,62,8.0,15.0,60,0.00,,,0.00,0.000000,,2013-08-10 05:11:00,
2013-08-09 23:22:00,60.0,46.0,-100.00,ENE,62,8.0,15.0,60,0.00,,,0.00,0.000000,,2013-08-10 05:22:00,
2013-08-09 23:32:00,60.0,46.0,-100.00,ENE,62,8.0,15.0,60,0.00,,,0.00,0.000000,,2013-08-10 05:32:00,
2013-08-09 23:52:00,60.0,43.0,-100.00,NE,39,5.0,11.0,54,0.00,,,0.00,0.000000,,2013-08-10 05:52:00,